Location: Unspecified
(0.0000°N, 0.0000°E)
Time: 04:34:28
(UTC+00:00)

Courier 1B - All Passes

Search period start: 21 May 2026 00:00
Search period end: 31 May 2026 00:00
Orbit: 962 x 1209 km, 28.3° (Epoch: 20 May)

Date Brightness Start Highest point End Pass type
(mag) Time Alt. Az. Time Alt. Az. Time Alt. Az.
21 May - 01:00:47 10° SW 01:06:33 33° SSE 01:12:17 10° E night (unlit)
21 May - 02:54:10 10° WSW 03:00:35 66° NNW 03:07:09 10° NE visible
21 May - 04:50:29 10° WNW 04:54:58 19° NNW 04:59:35 10° NNE visible
21 May - 10:41:59 10° N 10:44:02 11° NNE 10:46:06 10° NE daylight
21 May - 12:32:32 10° NNW 12:39:22 33° NNE 12:46:17 10° E daylight
21 May - 14:26:02 10° WNW 14:33:56 81° SSW 14:41:42 10° ESE daylight
21 May - 16:22:16 10° W 16:28:31 26° SSW 16:34:37 10° SSE daylight
22 May - 00:07:26 10° SSW 00:12:35 24° SSE 00:17:38 10° ESE night (unlit)
22 May - 02:00:14 10° WSW 02:06:44 87° SSE 02:13:17 10° ENE visible
22 May - 03:55:38 10° W 04:00:53 26° NNW 04:06:17 10° NNE visible
22 May - 11:39:04 10° NNW 11:45:08 25° NNE 11:51:17 10° E daylight
22 May - 13:31:58 10° NW 13:39:47 77° NNE 13:47:38 10° ESE daylight
22 May - 15:27:18 10° W 15:34:18 35° SSW 15:41:11 10° SE daylight
22 May - 17:27:12 10° SW 17:29:32 11° SSW 17:31:50 10° S daylight
22 May - 23:14:15 10° SSW 23:18:30 17° SSE 23:22:40 10° ESE night (unlit)
23 May - 01:06:26 10° SW 01:12:53 62° SSE 01:19:17 10° ENE night (unlit)
23 May - 03:01:06 10° W 03:06:55 35° NNW 03:12:50 10° NE visible
23 May - 05:00:35 10° NNW 05:01:45 10° NNW 05:02:57 10° N visible
23 May - 10:45:52 10° NNW 10:50:50 18° NNE 10:55:54 10° ENE daylight
23 May - 12:38:04 10° NW 12:45:38 57° NNE 12:53:20 10° ESE daylight
23 May - 14:32:38 10° WNW 14:40:07 47° SSW 14:47:33 10° SE daylight
23 May - 16:30:43 10° WSW 16:35:06 16° SSW 16:39:26 10° SSE daylight
23 May - 22:21:21 10° S 22:24:19 13° SSE 22:27:13 10° SE night (unlit)
24 May - 00:12:46 10° SW 00:19:00 43° SSE 00:25:06 10° E night (unlit)
24 May - 02:06:46 10° WSW 02:13:01 50° NNW 02:19:17 10° NE visible
24 May - 04:04:12 10° NW 04:07:31 14° NNW 04:10:53 10° N visible
24 May - 09:53:05 10° N 09:56:29 13° NNE 09:59:56 10° NE daylight
24 May - 11:44:23 10° NW 11:51:30 42° NNE 11:58:47 10° E daylight
24 May - 13:38:14 10° WNW 13:45:57 64° SSW 13:53:44 10° SE daylight
24 May - 15:35:06 10° WSW 15:40:45 21° SSW 15:46:20 10° SSE daylight
24 May - 23:19:11 10° SSW 23:25:03 31° SSE 23:30:44 10° E night (unlit)
25 May - 01:12:38 10° WSW 01:19:10 71° NNW 01:25:36 10° NE night (unlit)
25 May - 03:08:55 10° WNW 03:13:24 19° NNW 03:17:56 10° NNE visible
25 May - 10:50:53 10° NNW 10:57:19 31° NNE 11:03:58 10° E daylight
25 May - 12:44:05 10° WNW 12:51:48 86° SSW 12:59:44 10° ESE daylight
25 May - 14:39:56 10° W 14:46:27 28° SSW 14:52:58 10° SSE daylight
25 May - 22:25:44 10° SSW 22:31:01 23° SSE 22:36:07 10° ESE night (unlit)
26 May - 00:18:37 10° WSW 00:25:19 82° SSE 00:31:47 10° ENE night (unlit)
26 May - 02:14:02 10° W 02:19:24 27° NNW 02:24:45 10° NNE visible
26 May - 09:57:37 10° NNW 10:03:07 22° NNE 10:08:49 10° ENE daylight
26 May - 11:50:08 10° NW 11:57:41 71° NNE 12:05:32 10° ESE daylight
26 May - 13:45:08 10° W 13:52:13 38° SSW 13:59:23 10° SE daylight
26 May - 15:44:11 10° SW 15:47:29 13° SSW 15:50:47 10° S daylight
26 May - 21:32:25 10° SSW 21:36:52 17° SSE 21:41:10 10° ESE night (unlit)
26 May - 23:24:45 10° SW 23:31:26 58° SSE 23:37:49 10° ENE night (unlit)
27 May - 01:19:26 10° W 01:25:27 38° NNW 01:31:23 10° NE visible
27 May - 03:18:48 10° NNW 03:20:08 11° NNW 03:21:28 10° N visible
27 May - 09:04:39 10° NNW 09:08:53 16° NNE 09:13:14 10° ENE daylight
27 May - 10:56:24 10° NW 11:03:35 52° NNE 11:11:07 10° ESE daylight
27 May - 12:50:38 10° WNW 12:58:01 51° SSW 13:05:37 10° SE daylight
27 May - 14:48:12 10° WSW 14:53:02 17° SSW 14:57:52 10° SSE daylight
27 May - 20:39:22 10° S 20:42:36 13° SSE 20:45:46 10° SE visible
27 May - 22:30:59 10° SW 22:37:30 41° SSE 22:43:40 10° E night (unlit)
28 May - 00:25:03 10° WSW 00:31:34 54° NNW 00:37:52 10° NE night (unlit)
28 May - 02:22:26 10° WNW 02:25:57 15° NNW 02:29:28 10° N visible
28 May - 08:12:25 10° N 08:14:35 11° NNE 08:16:46 10° NE daylight
28 May - 10:02:52 10° NW 10:09:29 38° NNE 10:16:28 10° E daylight
28 May - 11:56:23 10° WNW 12:03:52 68° SSW 12:11:41 10° SE daylight
28 May - 13:52:50 10° WSW 13:58:40 23° SSW 14:04:34 10° SSE daylight
28 May - 19:47:18 10° S 19:48:12 10° SSE 19:49:05 10° SSE visible
28 May - 21:37:19 10° SSW 21:43:28 31° SSE 21:49:18 10° E night (unlit)
28 May - 23:30:50 10° WSW 23:37:43 77° NNW 23:44:14 10° NE night (unlit)
29 May - 01:27:06 10° WNW 01:31:53 21° NNW 01:36:36 10° NNE visible
29 May - 09:09:31 10° NNW 09:15:24 27° NNE 09:21:32 10° E daylight
29 May - 11:02:23 10° WNW 11:09:46 89° NE 11:17:35 10° ESE daylight
29 May - 12:57:51 10° W 13:04:22 30° SSW 13:11:02 10° SSE daylight
29 May - 14:58:33 10° SSW 14:59:56 10° SSW 15:01:19 10° S daylight
29 May - 20:43:46 10° SSW 20:49:20 23° SSE 20:54:39 10° ESE visible
29 May - 22:36:46 10° SW 22:43:48 77° SSE 22:50:26 10° ENE night (unlit)
30 May - 00:32:11 10° W 00:37:54 29° NNW 00:43:26 10° NNE night (unlit)
30 May - 08:16:26 10° NNW 08:21:16 20° NNE 08:26:16 10° ENE daylight
30 May - 10:08:35 10° NW 10:15:43 66° NNE 10:23:17 10° ESE daylight
30 May - 12:03:14 10° W 12:10:09 39° SSW 12:17:20 10° SE daylight
30 May - 14:01:42 10° SW 14:05:24 14° SSW 14:09:07 10° S daylight
30 May - 19:50:21 10° SSW 19:55:05 18° SSE 19:59:39 10° ESE visible
30 May - 21:42:48 10° SW 21:49:51 55° SSE 21:56:27 10° ENE night (unlit)
30 May - 23:37:32 10° W 23:43:58 41° NNW 23:50:06 10° NE night (unlit)
